Location: Consuma
(43.7833°N, 11.5833°E)
Time: 09:15:17
(UTC+00:00)

CZ-4C R/B - Pass Details

Date: 17 February 2020
Orbit: 641 x 1361 km, 63.4° (Epoch: 03 April)

Event Time Altitude Azimuth Distance (km) Brightness Sun altitude
Exits shadow 03:29:41 32° 355° (N) 1,437 3.4 -29.6°
Drops below altitude 10° 03:33:43 10° 27° (NNE) 2,656 5.2 -28.9°
Sets 03:36:43 0° 35° (NE) 3,733 6.2 -28.3°
